Simultaneous Nadir Overpasses (SNOs) Predictions

Prediction of SNOs between LANDSAT-8 and NOAA-19 Satellite Orbit:

Table of predicted SNOs for the next 14.0 days since TLE Epoch: 5/11/2019
Index Date (LANDSAT-8) Time (LANDSAT-8) Lat,Lon (LANDSAT-8) SZA (LANDSAT-8 ) Date (NOAA-19) Time (NOAA-19) Lat,Lon (NOAA-19) SZA (NOAA-19 ) Distance(km) Time Diff (sec)
1 05/11/2019 21:01:45 78.73,-116.31 61.43 05/11/2019 21:00:42 78.75,-116.35 61.43 2.51 63
2 05/11/2019 21:51:13 -78.70, 51.18 118.62 05/11/2019 21:51:37 -78.70, 51.25 118.60 1.57 24
3 05/14/2019 03:24:58 78.72, 147.83 60.85 05/14/2019 03:25:08 78.73, 147.79 60.86 1.47 10
4 05/16/2019 08:58:45 -78.73,-115.55 119.67 05/16/2019 08:58:31 -78.72,-115.44 119.67 2.36 14
5 05/18/2019 14:32:30 78.76, -18.82 59.88 05/18/2019 14:32:01 78.75, -18.96 59.86 2.89 29
6 05/18/2019 15:21:59 -78.70, 148.47 120.22 05/18/2019 15:22:58 -78.72, 148.55 120.17 3.20 59
7 05/20/2019 20:06:18 -78.75, 77.68 120.62 05/20/2019 20:05:25 -78.75, 77.82 120.62 3.09 53
8 05/20/2019 20:55:44 78.73,-114.77 59.36 05/20/2019 20:56:27 78.74,-114.87 59.37 2.44 43
9 05/23/2019 01:40:03 78.79, 174.47 59.00 05/23/2019 01:38:53 78.76, 174.48 58.95 3.66 70




NCC Satellite Simultaneous Nadir Overpasses (SNOs) Prediction Service
